FW8253 Weather Reports


time (UTC)temp
C
wind
direction
speed
KPH
gust
KPH
rain 1hr
cm
rain 24hr
cm
rain mn
cm
humidity
%
barometer
mb
20260904181821 34 194 0.0 0.0 0.00 0.00 0.00 60 1016.5
20260904181320 35 227 0.0 0.0 0.00 0.00 0.00 60 1016.6
20260904180815 35 214 0.0 0.0 0.00 0.00 0.00 58 1016.8
20260904180311 35 132 0.0 0.0 0.00 0.00 0.00 56 1016.6
20260904175809 36 29 0.0 0.0 0.00 0.00 0.00 55 1016.5
20260904175308 36 251 0.0 0.0 0.00 0.00 0.00 58 1016.9
20260904174803 35 217 0.0 0.0 0.00 0.00 0.00 60 1016.7
20260904174300 34 272 0.0 0.0 0.00 0.00 0.00 61 1016.8
20260904173755 34 4 0.0 0.0 0.00 0.00 0.00 60 1017.2
20260904173250 33 159 0.0 0.0 0.00 0.00 0.00 62 1017.0
20260904172746 34 220 0.0 0.0 0.00 0.00 0.00 61 1017.0
20260904172244 34 191 0.0 0.0 0.00 0.00 0.00 61 1017.1
20260904171740 35 268 0.0 0.0 0.00 0.00 0.00 60 1017.2
20260904171235 35 225 0.0 0.0 0.00 0.00 0.00 59 1017.1
20260904170731 34 221 0.0 0.0 0.00 0.00 0.00 61 1017.3
20260904170227 33 241 0.0 0.0 0.00 0.00 0.00 63 1017.3
20260904165726 33 312 0.0 0.0 0.00 0.00 0.00 64 1017.5
20260904165221 33 180 0.0 0.0 0.00 0.00 0.00 63 1017.5
20260904164715 34 11 0.0 0.0 0.00 0.00 0.00 62 1017.5
20260904164210 35 14 0.0 0.0 0.00 0.00 0.00 63 1017.7
20260904163706 33 186 0.0 0.0 0.00 0.00 0.00 65 1017.6
20260904163201 33 261 0.0 0.0 0.00 0.00 0.00 67 1017.9
20260904162700 33 207 0.0 0.0 0.00 0.00 0.00 67 1018.0
20260904162155 35 35 0.0 0.0 0.00 0.00 0.00 64 1018.0
20260904161651 34 26 0.0 0.0 0.00 0.00 0.00 62 1017.8
20260904161146 33 253 0.0 0.0 0.00 0.00 0.00 65 1018.0
20260904160642 32 228 0.0 0.0 0.00 0.00 0.00 69 1018.2
20260904160137 32 187 0.0 0.0 0.00 0.00 0.00 72 1018.1
20260904155632 30 224 0.0 0.0 0.00 0.00 0.00 80 1018.3
20260904155126 30 234 0.0 0.0 0.00 0.00 0.00 81 1018.2
20260904154624 30 225 0.0 0.0 0.00 0.00 0.00 82 1018.6
20260904154119 30 240 0.0 0.0 0.00 0.00 0.00 80 1018.5
20260904153614 30 253 0.0 0.0 0.00 0.00 0.00 81 1018.8
20260904153110 30 239 0.0 0.0 0.00 0.00 0.00 83 1018.5
20260904152606 30 237 0.0 0.0 0.00 0.00 0.00 82 1018.6
20260904152101 30 225 0.0 0.0 0.00 0.00 0.00 83 1018.5
20260904151556 30 206 0.0 0.0 0.00 0.00 0.00 82 1018.5
20260904151055 30 217 0.0 0.0 0.00 0.00 0.00 81 1018.5
20260904150550 30 189 0.0 0.0 0.00 0.00 0.00 82 1018.3
20260904150045 31 248 0.0 0.0 0.00 0.00 0.00 78 1018.2
20260904145544 30 218 0.0 0.0 0.00 0.00 0.00 80 1018.5
20260904145039 30 208 0.0 0.0 0.00 0.00 0.00 79 1018.3
20260904144535 29 236 0.0 0.0 0.00 0.00 0.00 84 1018.2
20260904144031 30 56 0.0 0.0 0.00 0.00 0.00 81 1018.3
20260904143526 30 223 0.0 0.0 0.00 0.00 0.00 81 1018.5
20260904143023 30 196 0.0 0.0 0.00 0.00 0.00 80 1018.3
20260904142519 30 88 0.0 0.0 0.00 0.00 0.00 78 1018.3
20260904142019 30 220 0.0 0.0 0.00 0.00 0.00 80 1018.4
20260904141515 30 180 0.0 0.0 0.00 0.00 0.00 77 1018.4
20260904141010 30 156 0.0 0.0 0.00 0.00 0.00 80 1018.1
20260904140505 29 297 0.0 0.0 0.00 0.00 0.00 83 1018.2
20260904140004 28 249 0.0 0.0 0.00 0.00 0.00 85 1018.2
20260904135458 28 237 0.0 0.0 0.00 0.00 0.00 85 1018.1
20260904134955 28 192 0.0 0.0 0.00 0.00 0.00 86 1018.2
20260904134454 28 195 0.0 0.0 0.00 0.00 0.00 87 1018.1
20260904133949 28 155 0.0 0.0 0.00 0.00 0.00 88 1018.1
20260904133444 28 6 0.0 0.0 0.00 0.00 0.00 90 1018.1
20260904132939 29 167 0.0 0.0 0.00 0.00 0.00 88 1018.2
20260904132435 28 193 0.0 0.0 0.00 0.00 0.00 88 1018.2
20260904131934 27 189 0.0 0.0 0.00 0.00 0.00 91 1018.4
20260904131429 27 161 0.0 0.0 0.00 0.00 0.00 93 1018.4
20260904130925 27 212 0.0 0.0 0.00 0.00 0.00 95 1018.3
20260904130424 26 222 0.0 0.0 0.00 0.00 0.00 96 1018.5
20260904125919 25 182 0.0 0.0 0.00 0.00 0.00 98 1018.3
20260904125416 25 172 0.0 0.0 0.00 0.00 0.00 99 1018.7
20260904124915 25 227 0.0 0.0 0.00 0.00 0.00 99 1018.5
20260904124411 24 229 0.0 0.0 0.00 0.00 0.00 99 1018.4
20260904123907 23 237 0.0 0.0 0.00 0.00 0.00 99 1018.5
20260904123407 23 236 0.0 0.0 0.00 0.00 0.00 99 1018.5
20260904122903 23 236 0.0 0.0 0.00 0.00 0.00 99 1018.5
20260904122402 22 237 0.0 0.0 0.00 0.00 0.00 99 1018.4
20260904121856 22 240 0.0 0.0 0.00 0.00 0.00 99 1018.3
20260904121353 22 230 0.0 0.0 0.00 0.00 0.00 99 1018.6
20260904120849 22 228 0.0 0.0 0.00 0.00 0.00 99 1018.6
20260904120344 22 236 0.0 0.0 0.00 0.00 0.00 99 1018.4
20260904115839 22 235 0.0 0.0 0.00 0.00 0.00 99 1018.5
20260904115335 22 238 0.0 0.0 0.00 0.00 0.00 99 1018.4
20260904114829 22 238 0.0 0.0 0.00 0.00 0.00 99 1018.4
20260904114324 21 224 0.0 0.0 0.00 0.00 0.00 99 1018.4
20260904113819 21 224 0.0 0.0 0.00 0.00 0.00 99 1018.2
20260904113318 21 217 0.0 0.0 0.00 0.00 0.00 99 1018.3
20260904112813 21 212 0.0 0.0 0.00 0.00 0.00 99 1018.1
20260904112309 21 212 0.0 0.0 0.00 0.00 0.00 99 1017.9
20260904111804 21 212 0.0 0.0 0.00 0.00 0.00 99 1018.2
20260904111300 21 212 0.0 0.0 0.00 0.00 0.00 99 1018.1
20260904110755 21 228 0.0 0.0 0.00 0.00 0.00 99 1017.9
20260904110254 21 228 0.0 0.0 0.00 0.00 0.00 99 1018.0
20260904105750 21 227 0.0 0.0 0.00 0.00 0.00 99 1018.1
20260904105244 21 233 0.0 0.0 0.00 0.00 0.00 99 1017.9
20260904104739 21 233 0.0 0.0 0.00 0.00 0.00 99 1017.9
20260904104235 22 233 0.0 0.0 0.00 0.00 0.00 99 1017.7
20260904103732 22 233 0.0 0.0 0.00 0.00 0.00 99 1017.9
20260904103226 22 233 0.0 0.0 0.00 0.00 0.00 99 1017.9
20260904102722 22 233 0.0 0.0 0.00 0.00 0.00 99 1017.9
20260904102217 22 233 0.0 0.0 0.00 0.00 0.00 99 1017.7
20260904101714 22 229 0.0 0.0 0.00 0.00 0.00 99 1017.4
20260904101209 22 215 0.0 0.0 0.00 0.00 0.00 99 1017.4
20260904100705 22 230 0.0 0.0 0.00 0.00 0.00 99 1017.5
20260904100201 22 230 0.0 0.0 0.00 0.00 0.00 99 1017.5
20260904095700 22 230 0.0 0.0 0.00 0.00 0.00 99 1017.8
20260904095155 22 230 0.0 0.0 0.00 0.00 0.00 99 1017.3
20260904094650 22 230 0.0 0.0 0.00 0.00 0.00 99 1017.6
20260904094145 22 230 0.0 0.0 0.00 0.00 0.00 99 1017.6
20260904093642 22 221 0.0 0.0 0.00 0.00 0.00 99 1017.3
20260904093141 22 208 0.0 0.0 0.00 0.00 0.00 99 1017.3
20260904092637 22 208 0.0 0.0 0.00 0.00 0.00 99 1017.2
20260904092133 22 210 0.0 0.0 0.00 0.00 0.00 99 1017.1
20260904091629 22 214 0.0 0.0 0.00 0.00 0.00 99 1017.1
20260904091129 22 214 0.0 0.0 0.00 0.00 0.00 99 1017.1
20260904090624 22 214 0.0 0.0 0.00 0.00 0.00 99 1016.9
20260904090120 22 213 0.0 0.0 0.00 0.00 0.00 99 1017.2
20260904085615 22 224 0.0 0.0 0.00 0.00 0.00 99 1017.2
20260904085114 22 224 0.0 0.0 0.00 0.00 0.00 99 1017.1
20260904084610 22 229 0.0 0.0 0.00 0.00 0.00 99 1017.1
20260904084106 22 229 0.0 0.0 0.00 0.00 0.00 99 1017.2
20260904083602 22 231 0.0 0.0 0.00 0.00 0.00 99 1016.9
20260904083057 22 231 0.0 0.0 0.00 0.00 0.00 99 1017.0
20260904082552 22 231 0.0 0.0 0.00 0.00 0.00 99 1017.0
20260904082048 22 223 0.0 0.0 0.00 0.00 0.00 99 1016.8
20260904081543 22 230 0.0 0.0 0.00 0.00 0.00 99 1016.9
20260904081039 23 230 0.0 0.0 0.00 0.00 0.00 99 1016.8
20260904080534 22 230 0.0 0.0 0.00 0.00 0.00 99 1016.7
20260904080030 23 230 0.0 0.0 0.00 0.00 0.00 99 1016.7
20260904075526 23 230 0.0 0.0 0.00 0.00 0.00 99 1016.6
20260904075021 23 229 0.0 0.0 0.00 0.00 0.00 99 1016.8
20260904074515 23 239 0.0 0.0 0.00 0.00 0.00 99 1016.7
20260904074014 23 222 0.0 0.0 0.00 0.00 0.00 99 1016.9
20260904073510 23 223 0.0 0.0 0.00 0.00 0.00 99 1016.8
20260904073006 23 213 0.0 0.0 0.00 0.00 0.00 99 1016.7
20260904072502 23 177 0.0 0.0 0.00 0.00 0.00 99 1016.7
20260904071956 23 182 0.0 0.0 0.00 0.00 0.00 99 1016.7
20260904071451 23 182 0.0 0.0 0.00 0.00 0.00 99 1016.8
20260904070946 23 175 0.0 0.0 0.00 0.00 0.00 99 1016.8
20260904070444 23 175 0.0 0.0 0.00 0.00 0.00 99 1016.7
20260904065939 23 175 0.0 0.0 0.00 0.00 0.00 98 1016.7
20260904065436 23 174 0.0 0.0 0.00 0.00 0.00 98 1016.8
20260904064931 23 183 0.0 0.0 0.00 0.00 0.00 98 1017.0
20260904064427 24 184 0.0 0.0 0.00 0.00 0.00 98 1017.0
20260904063922 23 200 0.0 0.0 0.00 0.00 0.00 99 1017.0
20260904063419 23 178 0.0 0.0 0.00 0.00 0.00 98 1017.1
20260904062913 23 177 0.0 0.0 0.00 0.00 0.00 98 1017.2
20260904062409 23 177 0.0 0.0 0.00 0.00 0.00 98 1017.2
20260904061905 23 177 0.0 0.0 0.00 0.00 0.00 98 1017.4
20260904061401 23 177 0.0 0.0 0.00 0.00 0.00 97 1017.6
20260904060857 23 177 0.0 0.0 0.00 0.00 0.00 97 1017.5
20260904060353 23 176 0.0 0.0 0.00 0.00 0.00 97 1017.4
20260904055848 23 179 0.0 0.0 0.00 0.00 0.00 97 1017.5
20260904055343 24 179 0.0 0.0 0.00 0.00 0.00 97 1017.5
20260904054838 24 179 0.0 0.0 0.00 0.00 0.00 96 1017.8
20260904054334 24 179 0.0 0.0 0.00 0.00 0.00 96 1017.9
20260904053830 24 179 0.0 0.0 0.00 0.00 0.00 96 1017.6
20260904053329 24 181 0.0 0.0 0.00 0.00 0.00 96 1018.0
20260904052825 24 181 0.0 0.0 0.00 0.00 0.00 95 1017.9
20260904052321 24 181 0.0 0.0 0.00 0.00 0.00 95 1017.8
20260904051817 25 181 0.0 0.0 0.00 0.00 0.00 95 1017.9
20260904051313 25 180 0.0 0.0 0.00 0.00 0.00 95 1018.0
20260904050808 25 185 0.0 0.0 0.00 0.00 0.00 95 1017.9
20260904050305 25 187 0.0 0.0 0.00 0.00 0.00 94 1017.9
20260904045804 25 187 0.0 0.0 0.00 0.00 0.00 94 1017.9
20260904045259 25 196 0.0 0.0 0.00 0.00 0.00 94 1017.9
20260904044754 25 196 0.0 0.0 0.00 0.00 0.00 94 1017.9
20260904044251 25 200 0.0 0.0 0.00 0.00 0.00 94 1018.0
20260904043746 25 219 0.0 0.0 0.00 0.00 0.00 94 1017.9
20260904043243 25 220 0.0 0.0 0.00 0.00 0.00 93 1018.0
20260904042737 25 219 0.0 0.0 0.00 0.00 0.00 93 1018.0
20260904042234 25 220 0.0 0.0 0.00 0.00 0.00 93 1017.9
20260904041733 25 220 0.0 0.0 0.00 0.00 0.00 93 1018.0
20260904041229 25 220 0.0 0.0 0.00 0.00 0.00 92 1017.9
20260904040725 25 220 0.0 0.0 0.00 0.00 0.00 92 1017.9
20260904040220 25 220 0.0 0.0 0.00 0.00 0.00 92 1018.1
20260904035717 25 220 0.0 0.0 0.00 0.00 0.00 91 1017.9
20260904035212 25 220 0.0 0.0 0.00 0.00 0.00 91 1018.1
20260904034710 25 205 0.0 0.0 0.00 0.00 0.00 91 1018.1
20260904034207 25 195 0.0 0.0 0.00 0.00 0.00 90 1018.1
20260904033702 26 191 0.0 0.0 0.00 0.00 0.00 90 1018.1
20260904033159 26 191 0.0 0.0 0.00 0.00 0.00 89 1018.3
20260904032655 26 191 0.0 0.0 0.00 0.00 0.00 89 1017.9
20260904032153 26 192 0.0 0.0 0.00 0.00 0.00 88 1018.4
20260904031648 26 191 0.0 0.0 0.00 0.00 0.00 88 1018.3
20260904031144 26 190 0.0 0.0 0.00 0.00 0.00 87 1018.3
20260904030639 26 191 0.0 0.0 0.00 0.00 0.00 86 1018.3
20260904030134 26 191 0.0 0.0 0.00 0.00 0.00 86 1018.5
20260904025630 26 190 0.0 0.0 0.00 0.00 0.00 85 1018.3
20260904025125 26 187 0.0 0.0 0.00 0.00 0.00 85 1018.3
20260904024621 26 186 0.0 0.0 0.00 0.00 0.00 84 1018.2
20260904024116 27 194 0.0 0.0 0.00 0.00 0.00 84 1018.2
20260904023612 27 185 0.0 0.0 0.00 0.00 0.00 83 1018.3
20260904023108 27 187 0.0 0.0 0.00 0.00 0.00 82 1018.3
20260904022608 27 187 0.0 0.0 0.00 0.00 0.00 82 1018.2
20260904022105 27 187 0.0 0.0 0.00 0.00 0.00 81 1018.1
20260904021600 27 181 0.0 0.0 0.00 0.00 0.00 81 1018.1
20260904021055 27 181 0.0 0.0 0.00 0.00 0.00 81 1018.1
20260904020550 27 226 0.0 0.0 0.00 0.00 0.00 79 1018.0
20260904020045 27 226 0.0 0.0 0.00 0.00 0.00 79 1018.1
20260904015539 27 226 0.0 0.0 0.00 0.00 0.00 78 1017.8
20260904015038 27 210 0.0 0.0 0.00 0.00 0.00 77 1017.6
20260904014532 27 186 0.0 0.0 0.00 0.00 0.00 76 1017.7
20260904014028 27 184 0.0 0.0 0.00 0.00 0.00 76 1017.7
20260904013524 28 179 0.0 0.0 0.00 0.00 0.00 76 1017.5
20260904013020 28 186 0.0 0.0 0.00 0.00 0.00 75 1017.7
20260904012520 28 187 0.0 0.0 0.00 0.00 0.00 75 1017.3
20260904012015 28 189 0.0 0.0 0.00 0.00 0.00 74 1017.4
20260904011514 28 177 0.0 0.0 0.00 0.00 0.00 75 1017.3
20260904011010 28 214 0.0 0.0 0.00 0.00 0.00 74 1017.4
20260904010506 28 219 0.0 0.0 0.00 0.00 0.00 73 1017.1
20260904010001 28 209 0.0 0.0 0.00 0.00 0.00 73 1017.0
20260904005456 28 181 0.0 0.0 0.00 0.00 0.00 72 1016.9
20260904004951 29 181 0.0 0.0 0.00 0.00 0.00 72 1016.9
20260904004447 29 182 0.0 0.0 0.00 0.00 0.00 71 1016.9
20260904003947 29 199 0.0 0.0 0.00 0.00 0.00 70 1016.9
20260904003443 30 210 0.0 0.0 0.00 0.00 0.00 70 1016.8
20260904002938 30 220 0.0 0.0 0.00 0.00 0.00 69 1016.6
20260904002435 30 224 0.0 0.0 0.00 0.00 0.00 69 1016.3
20260904001933 30 203 0.0 0.0 0.00 0.00 0.00 68 1016.4
20260904001429 30 205 0.0 0.0 0.00 0.00 0.00 68 1016.2
20260904000929 31 227 0.0 0.0 0.00 0.00 0.00 67 1016.3
20260904000429 31 218 0.0 0.0 0.00 0.00 0.00 66 1016.0
20260903235924 31 216 0.0 0.0 0.00 0.00 0.00 65 1016.0
20260903235420 31 220 0.0 0.0 0.00 0.00 0.00 65 1015.9
20260903234919 31 212 0.0 0.0 0.00 0.00 0.00 64 1016.0
20260903234416 32 216 0.0 0.0 0.00 0.00 0.00 63 1016.1
20260903233912 32 225 0.0 0.0 0.00 0.00 0.00 62 1015.9
20260903233408 32 218 0.0 0.0 0.00 0.00 0.00 61 1015.8
20260903232908 32 215 0.0 0.0 0.00 0.00 0.00 61 1015.7
20260903232403 33 160 0.0 0.0 0.00 0.00 0.00 60 1015.6
20260903231902 33 191 0.0 0.0 0.00 0.00 0.00 60 1015.7
20260903231357 33 226 0.0 0.0 0.00 0.00 0.00 60 1015.8
20260903230853 33 228 0.0 0.0 0.00 0.00 0.00 60 1015.6
20260903230348 33 217 0.0 0.0 0.00 0.00 0.00 59 1015.7
20260903225844 33 223 0.0 0.0 0.00 0.00 0.00 58 1015.6
20260903225339 34 110 0.0 0.0 0.00 0.00 0.00 58 1015.8
20260903224836 34 231 0.0 0.0 0.00 0.00 0.00 57 1015.8
20260903224332 34 155 0.0 0.0 0.00 0.00 0.00 57 1015.9
20260903223827 34 233 0.0 0.0 0.00 0.00 0.00 57 1015.8
20260903223326 35 215 0.0 0.0 0.00 0.00 0.00 56 1015.9
20260903222821 35 201 0.0 0.0 0.00 0.00 0.00 56 1015.5
20260903222320 35 231 0.0 0.0 0.00 0.00 0.00 56 1015.7
20260903221815 35 224 0.0 0.0 0.00 0.00 0.00 55 1015.7
20260903221314 35 209 0.0 0.0 0.00 0.00 0.00 55 1015.7
20260903220812 35 230 0.0 0.0 0.00 0.00 0.00 54 1015.6
20260903220307 35 204 0.0 0.0 0.00 0.00 0.00 54 1015.6
20260903215805 35 99 0.0 0.0 0.00 0.00 0.00 55 1015.5
20260903215305 35 226 0.0 0.0 0.00 0.00 0.00 55 1015.5
20260903214759 35 230 0.0 0.0 0.00 0.00 0.00 54 1015.5
20260903214256 36 187 0.0 0.0 0.00 0.00 0.00 53 1015.5
20260903213750 36 216 0.0 0.0 0.00 0.00 0.00 52 1015.5
20260903213246 36 225 0.0 0.0 0.00 0.00 0.00 51 1015.8
20260903212742 37 219 0.0 0.0 0.00 0.00 0.00 49 1015.7
20260903212239 37 226 0.0 0.0 0.00 0.00 0.00 50 1015.6
20260903211737 36 188 0.0 0.0 0.00 0.00 0.00 51 1015.6
20260903211234 36 217 0.0 0.0 0.00 0.00 0.00 51 1015.4
20260903210730 36 199 0.0 0.0 0.00 0.00 0.00 52 1015.6
20260903210225 37 207 0.0 0.0 0.00 0.00 0.00 50 1015.8
20260903205724 37 231 0.0 0.0 0.00 0.00 0.00 46 1015.7
20260903205223 37 195 0.0 0.0 0.00 0.00 0.00 46 1015.7
20260903204719 37 201 0.0 0.0 0.00 0.00 0.00 45 1015.8
20260903204215 38 190 0.0 0.0 0.00 0.00 0.00 46 1015.7
20260903203711 37 260 0.0 0.0 0.00 0.00 0.00 46 1015.8
20260903203206 38 260 0.0 0.0 0.00 0.00 0.00 46 1015.7
20260903202700 38 79 0.0 0.0 0.00 0.00 0.00 46 1015.8
20260903202156 38 207 0.0 0.0 0.00 0.00 0.00 45 1016.0
20260903201655 37 189 0.0 0.0 0.00 0.00 0.00 47 1016.0
20260903201150 38 199 0.0 0.0 0.00 0.00 0.00 46 1016.1
20260903200644 38 90 0.0 0.0 0.00 0.00 0.00 46 1016.1
20260903200140 38 233 0.0 0.0 0.00 0.00 0.00 46 1016.3
20260903195636 38 310 0.0 0.0 0.00 0.00 0.00 46 1016.3
20260903195131 37 216 0.0 0.0 0.00 0.00 0.00 49 1016.6
20260903194626 37 235 0.0 0.0 0.00 0.00 0.00 48 1016.3
20260903194126 37 246 0.0 0.0 0.00 0.00 0.00 48 1016.7
20260903193622 37 164 0.0 0.0 0.00 0.00 0.00 48 1016.4
20260903193118 37 151 0.0 0.0 0.00 0.00 0.00 49 1016.8
20260903192614 37 58 0.0 0.0 0.00 0.00 0.00 48 1016.5
20260903192114 37 283 0.0 0.0 0.00 0.00 0.00 49 1016.7
20260903191610 38 187 0.0 0.0 0.00 0.00 0.00 45 1016.7
20260903191105 37 189 0.0 0.0 0.00 0.00 0.00 47 1016.6
20260903190604 36 222 0.0 0.0 0.00 0.00 0.00 51 1016.8
20260903190059 37 197 0.0 0.0 0.00 0.00 0.00 49 1016.9
20260903185554 37 262 0.0 0.0 0.00 0.00 0.00 49 1017.0
20260903185050 39 152 0.0 0.0 0.00 0.00 0.00 45 1017.0
20260903184546 37 97 0.0 0.0 0.00 0.00 0.00 47 1017.0
20260903184041 38 52 0.0 0.0 0.00 0.00 0.00 46 1017.0
20260903183540 37 204 0.0 0.0 0.00 0.00 0.00 47 1017.0
20260903183035 37 62 0.0 0.0 0.00 0.00 0.00 48 1017.0
20260903182533 37 159 0.0 0.0 0.00 0.00 0.00 48 1016.9